Weather History for KEFK - June, 2013

Change the Weather History Date:

Thursday, June 27, 2013

  Actual Average Record
Temperature  
Mean Temperature 70 °F -  
Max Temperature 78 °F 76 °F 93 °F (1941)
Min Temperature 63 °F 54 °F 41 °F (1982)
Cooling Degree Days 6    
Growing Degree Days 20 (Base 50)    
Moisture  
Dew Point 63 °F    
Average Humidity 78    
Maximum Humidity 89    
Minimum Humidity 57    
Precipitation  
Precipitation 0.00 in - - ()
Sea Level Pressure  
Sea Level Pressure 29.79 in    
Wind  
Wind Speed 5 mph (SSE)    
Max Wind Speed 10 mph    
Max Gust Speed -    
Visibility 10 miles    
Events Rain    
Averages and records for this station are not official NWS values.
T = Trace of Precipitation, MM = Missing Value Source: NWS Daily Summary

Daily Weather History Graph

Daily Weather History Graph

Search for Another Location

Airport or City:

Trip Planner

Search our weather history database for the weather conditions in past years. The results will help you decide how hot, cold, wet, or windy it might be!

Date:

Astronomy

Jun. 27, 2013 Rise Set
Actual Time 5:04 AM EDT 8:39 PM EDT
Civil Twilight 4:27 AM EDT 9:16 PM EDT
Nautical Twilight 3:38 AM EDT 10:05 PM EDT
Astronomical Twilight 2:33 AM EDT 11:10 PM EDT
Moon 11:19 PM EDT (6/27) 10:15 AM EDT (6/27)
Length of Visible Light 16h 49m
Length of Day
15h 34m
Waning Gibbous, 76% of the Moon is Illuminated
Jun 27
Waning Gibbous
Jun 30
Last Quarter
Jul 8
New
Jul 15
First Quarter
Jul 22
Full

Hourly Weather History & Observations

Time (EDT) Temp. Dew Point Humidity Pressure Visibility Wind Dir Wind Speed Gust Speed Precip Events Conditions
12:15 AM 66.2 °F 61.5 °F 85% 29.81 in 10.0 mi SSW 4.6 mph - N/A   Overcast
12:35 AM 65.8 °F 61.7 °F 86% 29.82 in 10.0 mi South 4.6 mph - N/A   Overcast
12:55 AM 66.4 °F 61.7 °F 85% 29.81 in 10.0 mi South 4.6 mph - N/A   Overcast
1:15 AM 65.5 °F 60.8 °F 85% 29.81 in 10.0 mi SW 6.9 mph - N/A   Mostly Cloudy
1:35 AM 65.7 °F 61.2 °F 85% 29.81 in 10.0 mi SSW 5.8 mph - N/A   Mostly Cloudy
2:15 AM 65.5 °F 60.8 °F 85% 29.80 in 10.0 mi South 6.9 mph - N/A   Mostly Cloudy
2:35 AM 65.8 °F 60.8 °F 84% 29.81 in 10.0 mi South 6.9 mph - N/A   Overcast
2:55 AM 65.1 °F 60.3 °F 84% 29.80 in 10.0 mi South 3.5 mph - N/A   Mostly Cloudy
3:15 AM 64.4 °F 59.9 °F 85% 29.80 in 10.0 mi South 5.8 mph - N/A   Scattered Clouds
3:35 AM 64.4 °F 59.5 °F 84% 29.80 in 10.0 mi South 5.8 mph - N/A   Scattered Clouds
3:55 AM 64.4 °F 59.4 °F 84% 29.80 in 10.0 mi South 5.8 mph - N/A   Scattered Clouds
4:15 AM 64.6 °F 59.5 °F 84% 29.80 in 10.0 mi South 3.5 mph - N/A   Scattered Clouds
4:35 AM 64.2 °F 59.9 °F 86% 29.80 in 4.0 mi SE 5.8 mph - N/A Rain Rain
4:55 AM 63.9 °F 60.1 °F 87% 29.81 in 10.0 mi South 6.9 mph - N/A   Mostly Cloudy
5:15 AM 64.0 °F 60.3 °F 87% 29.81 in 10.0 mi South 8.1 mph - N/A   Mostly Cloudy
5:35 AM 63.9 °F 59.9 °F 87% 29.81 in 10.0 mi South 6.9 mph - N/A   Scattered Clouds
5:55 AM 63.9 °F 60.1 °F 87% 29.81 in 10.0 mi South 5.8 mph - N/A   Clear
6:15 AM 64.4 °F 60.3 °F 86% 29.81 in 10.0 mi South 3.5 mph - N/A   Clear
6:35 AM 64.2 °F 60.4 °F 87% 29.81 in 10.0 mi South 4.6 mph - N/A   Clear
6:55 AM 65.3 °F 61.0 °F 86% 29.82 in 10.0 mi South 4.6 mph - N/A   Clear
7:15 AM 66.4 °F 61.7 °F 85% 29.83 in 10.0 mi SSE 4.6 mph - N/A   Clear
7:35 AM 68.0 °F 61.9 °F 81% 29.82 in 10.0 mi South 5.8 mph - N/A   Clear
7:55 AM 68.9 °F 62.8 °F 81% 29.82 in 10.0 mi SSW 5.8 mph - N/A   Clear
8:15 AM 69.6 °F 63.3 °F 80% 29.81 in 10.0 mi South 4.6 mph - N/A   Clear
8:35 AM 70.3 °F 62.8 °F 77% 29.82 in 10.0 mi Calm Calm - N/A   Scattered Clouds
8:55 AM 71.6 °F 64.0 °F 77% 29.82 in 10.0 mi SSW 5.8 mph - N/A   Mostly Cloudy
9:15 AM 73.4 °F 64.9 °F 75% 29.82 in 10.0 mi SSW 8.1 mph - N/A   Scattered Clouds
9:35 AM 74.1 °F 64.0 °F 71% 29.81 in 10.0 mi Calm Calm - N/A   Scattered Clouds
9:55 AM 74.3 °F 64.2 °F 71% 29.81 in 10.0 mi Calm Calm - N/A   Scattered Clouds
10:15 AM 75.2 °F 64.2 °F 69% 29.81 in 10.0 mi ESE 3.5 mph - N/A   Scattered Clouds
10:35 AM 76.5 °F 64.2 °F 66% 29.80 in 10.0 mi Calm Calm - N/A   Scattered Clouds
10:55 AM 75.6 °F 61.2 °F 61% 29.81 in 10.0 mi Calm Calm - N/A   Scattered Clouds
11:15 AM 77.4 °F 61.2 °F 57% 29.80 in 10.0 mi Calm Calm - N/A   Mostly Cloudy
11:35 AM 75.4 °F 64.9 °F 70% 29.80 in 10.0 mi SSE 8.1 mph - N/A   Scattered Clouds
11:55 AM 75.7 °F 64.9 °F 69% 29.80 in 10.0 mi SSE 9.2 mph - N/A   Mostly Cloudy
12:15 PM 76.5 °F 65.8 °F 70% 29.80 in 10.0 mi SE 10.4 mph - N/A   Mostly Cloudy
12:35 PM 76.3 °F 65.5 °F 69% 29.80 in 10.0 mi ESE 10.4 mph - N/A   Overcast
12:55 PM 75.2 °F 64.4 °F 69% 29.80 in 10.0 mi SE 6.9 mph - N/A   Overcast
1:15 PM 76.3 °F 64.6 °F 67% 29.79 in 10.0 mi SSE 3.5 mph - N/A   Mostly Cloudy
1:35 PM 77.0 °F 64.2 °F 65% 29.78 in 10.0 mi SSE 3.5 mph - N/A   Scattered Clouds
1:55 PM 77.5 °F 64.6 °F 64% 29.78 in 10.0 mi SE 6.9 mph - N/A   Scattered Clouds
2:15 PM 77.0 °F 63.5 °F 63% 29.78 in 10.0 mi SE 5.8 mph - N/A   Mostly Cloudy
2:35 PM 78.4 °F 64.2 °F 62% 29.78 in 10.0 mi SE 4.6 mph - N/A   Overcast
2:55 PM 77.5 °F 61.0 °F 57% 29.78 in 10.0 mi Calm Calm - N/A   Mostly Cloudy
3:15 PM 74.5 °F 64.8 °F 72% 29.78 in 10.0 mi ESE 5.8 mph - N/A Rain Light Rain
3:35 PM 76.3 °F 64.6 °F 67% 29.78 in 10.0 mi South 4.6 mph - N/A   Mostly Cloudy
3:55 PM 75.0 °F 63.5 °F 67% 29.78 in 10.0 mi North 6.9 mph - N/A   Scattered Clouds
4:15 PM 74.5 °F 62.1 °F 65% 29.77 in 10.0 mi NE 3.5 mph - N/A   Mostly Cloudy
4:35 PM 74.8 °F 64.0 °F 69% 29.77 in 10.0 mi Calm Calm - N/A   Overcast
4:55 PM 74.8 °F 66.2 °F 74% 29.77 in 10.0 mi SSW 3.5 mph - N/A   Overcast
5:15 PM 73.2 °F 62.4 °F 69% 29.78 in 10.0 mi SSW 8.1 mph - N/A   Overcast
5:35 PM 71.4 °F 62.1 °F 72% 29.77 in 10.0 mi SSW 6.9 mph - N/A   Mostly Cloudy
5:55 PM 70.7 °F 62.8 °F 76% 29.77 in 10.0 mi Calm Calm - N/A Rain Light Rain
6:15 PM 71.8 °F 61.7 °F 70% 29.77 in 10.0 mi North 5.8 mph - N/A   Mostly Cloudy
6:35 PM 71.8 °F 63.7 °F 76% 29.77 in 10.0 mi North 6.9 mph - N/A   Overcast
6:55 PM 70.7 °F 64.4 °F 80% 29.78 in 10.0 mi North 10.4 mph - N/A   Overcast
7:15 PM 69.8 °F 64.2 °F 82% 29.79 in 10.0 mi North 8.1 mph - N/A   Mostly Cloudy
7:35 PM 69.8 °F 64.8 °F 84% 29.79 in 10.0 mi North 6.9 mph - N/A   Scattered Clouds
7:55 PM 69.6 °F 64.9 °F 85% 29.78 in 10.0 mi North 5.8 mph - N/A   Clear
8:15 PM 69.1 °F 65.1 °F 87% 29.79 in 7.0 mi North 4.6 mph - N/A   Scattered Clouds
8:35 PM 68.5 °F 64.6 °F 87% 29.78 in 7.0 mi North 4.6 mph - N/A   Scattered Clouds
8:55 PM 68.4 °F 64.0 °F 86% 29.78 in 10.0 mi North 5.8 mph - N/A   Mostly Cloudy
9:15 PM 68.2 °F 63.5 °F 85% 29.79 in 10.0 mi NNW 3.5 mph - N/A   Overcast
9:35 PM 68.0 °F 63.5 °F 85% 29.79 in 10.0 mi North 8.1 mph - N/A   Mostly Cloudy
9:55 PM 68.0 °F 63.5 °F 85% 29.78 in 10.0 mi NNW 8.1 mph - N/A   Mostly Cloudy
10:15 PM 68.0 °F 63.5 °F 85% 29.78 in 10.0 mi NNW 4.6 mph - N/A   Overcast
10:35 PM 67.1 °F 63.1 °F 87% 29.78 in 10.0 mi North 5.8 mph - N/A   Mostly Cloudy
10:55 PM 66.7 °F 63.0 °F 88% 29.78 in 7.0 mi North 5.8 mph - N/A   Scattered Clouds
11:15 PM 66.7 °F 63.0 °F 88% 29.78 in 10.0 mi North 3.5 mph - N/A   Mostly Cloudy
11:35 PM 66.2 °F 62.6 °F 88% 29.77 in 7.0 mi Calm Calm - N/A   Scattered Clouds
11:55 PM 65.7 °F 62.4 °F 89% 29.77 in 7.0 mi Calm Calm - N/A   Scattered Clouds